User: anonymous   Login
Location: Unspecified
(0.0000°N, 0.0000°E)
Time: 13:07:48
(UTC+00:00)
Language:

Nadezhda 3 - Orbit

View from above orbital plane
View from above orbital plane
View from above satellite
View from above satellite

Ground track
Ground track

The orbit data is extracted from the following two-line orbital elements,

1 21152U 91019A   18348.16433147  .00000024  00000-0  89158-5 0  9996
2 21152  82.9255 177.2371 0042126 153.5015 272.7877 13.74237455391809
Epoch (UTC): 14 December 2018 03:56:38
Eccentricity: 0.0042126
inclination: 82.9255°
perigee height: 953 km
apogee height: 1015 km
right ascension of ascending node: 177.2371°
argument of perigee: 153.5015°
revolutions per day: 13.74237455
mean anomaly at epoch: 272.7877°
orbit number at epoch: 39180

The dashed part of the orbit path shows where the satellite is in the earth's shadow,  

DLR